This is the latest recevied weather packets stored in our database for station/object N1ADJ. If no packets are shown the sender has not sent any weather packets the latest 10 day(s).
| Time | Temp. | Humidity | Pressure | Rain* | Wind** | Luminosity | Snow |
|---|---|---|---|---|---|---|---|
| 1777459238 | 7.78° C | 84% | 1017.7 hPa | 0 mm | - | - | - |
| 1777454717 | 7.78° C | 83% | 1018 hPa | 0 mm | - | - | - |
| 1777453817 | 7.78° C | 82% | 1018.2 hPa | 0 mm | - | - | - |
| 1777453517 | 7.78° C | 81% | 1018.3 hPa | 0 mm | - | - | - |
| 1777452918 | 7.78° C | 80% | 1018.6 hPa | 0 mm | - | - | - |
| 1777452318 | 7.78° C | 78% | 1018.7 hPa | 0 mm | - | - | - |
| 1777449017 | 7.78° C | 77% | 1019.2 hPa | 0 mm | - | - | - |
| 1777444517 | 7.78° C | 74% | 1018.6 hPa | 0 mm | - | - | - |
| 1777440337 | 7.22° C | 72% | 1018.7 hPa | 0 mm | - | - | - |
| 1777439417 | 7.22° C | 74% | 1018.6 hPa | 0 mm | - | - | - |
| 1777439117 | 7.22° C | 74% | 1018.7 hPa | 0 mm | - | - | - |
| 1777438817 | 7.22° C | 74% | 1018.8 hPa | 0 mm | - | - | - |
| 1777438517 | 7.22° C | 73% | 1019.1 hPa | 0 mm | - | - | - |
| 1777434318 | 6.67° C | 73% | 1019.7 hPa | 0 mm | - | - | - |
| 1777433118 | 6.67° C | 74% | 1019.8 hPa | 0 mm | - | - | - |
| 1777431317 | 6.11° C | 74% | 1020.4 hPa | 0 mm | - | - | - |
| 1777430737 | 5.56° C | 72% | 1020.7 hPa | 0 mm | - | - | - |
| 1777429818 | 5.56° C | 71% | 1020.6 hPa | 0 mm | - | - | - |
| 1777429218 | 5.56° C | 73% | 1020.7 hPa | 0 mm | - | - | - |
| 1777428317 | 5.56° C | 70% | 1020.7 hPa | 0 mm | - | - | - |
| 1777425617 | 6.67° C | 64% | 1021.1 hPa | 0 mm | - | - | - |
| 1777422637 | 8.33° C | 57% | 1021.1 hPa | 0 mm | - | - | - |
| 1777420517 | 10° C | 56% | 1020.8 hPa | 0 mm | - | - | - |
| 1777418117 | 11.67° C | 50% | 1021.2 hPa | 0 mm | - | - | - |
| 1777416917 | 12.22° C | 49% | 1021.8 hPa | 0 mm | - | - | - |
* Rain latest hour (hover to see other rain measurements)
** Current wind speed in m/s (hover to see current wind gust speed)